FW0598 Weather Reports


time (UTC)temp
F
wind
direction
speed
knots
gust
knots
rain 1hr
in
rain 24hr
in
rain mn
in
humidity
%
barometer
mb
20260504000018 58 64 0.0 0.0 0.03 0.04 0.04 96 1004.7
20260503234558 58 64 0.0 0.0 0.03 0.04 0.04 96 1004.7
20260503233056 57 64 0.0 0.0 0.02 0.03 0.03 96 1004.7
20260503231533 56 64 0.0 0.0 0.02 0.02 0.02 95 1005.1
20260503230033 55 64 0.0 0.0 0.01 0.01 0.01 95 1005.0
20260503224609 53 64 0.0 0.0 0.01 0.01 0.01 95 1005.0
20260503223006 52 64 0.0 0.0 0.01 0.01 0.01 94 1005.0
20260503221553 52 64 0.0 0.0 0.00 0.00 0.00 94 1004.9
20260503220048 51 64 0.0 0.0 0.00 0.00 0.00 94 1004.9
20260503214527 51 64 0.0 0.0 0.00 0.00 0.00 94 1004.8
20260503213026 0 0.0 0.0 0.00 0.00 0.00 1004.8
20260503211502 0 0.0 0.0 0.00 0.00 0.00 1004.6
20260503210059 0 0.0 0.0 0.00 0.00 0.00 1004.5
20260503204540 0 0.0 0.0 0.00 0.00 0.00 1004.2
20260503203034 0 0.0 0.0 0.00 0.00 0.00 1004.2
20260503201511 0 0.0 0.0 0.00 0.00 0.00 1004.2
20260503200008 0 0.0 0.0 0.00 0.00 0.00 1004.0
20260503194544 0 0.0 0.0 0.00 0.00 0.00 1004.0
20260503193044 0 0.0 0.0 0.00 0.00 0.00 1003.9
20260503191519 53 64 0.0 0.0 0.00 0.00 0.00 93 1004.1
20260503190016 53 64 0.0 0.0 0.00 0.00 0.00 93 1004.2
20260503184554 53 64 0.0 0.0 0.00 0.00 0.00 94 1004.5
20260503183107 53 64 0.0 0.0 0.00 0.00 0.00 94 1004.4
20260503181529 53 64 0.0 0.0 0.00 0.00 0.00 94 1004.7
20260503180027 53 64 0.0 0.0 0.00 0.00 0.00 94 1004.9
20260503174508 52 64 0.0 0.0 0.00 0.00 0.00 93 1004.9
20260503173019 52 64 0.0 0.0 0.00 0.00 0.00 93 1005.0
20260503171546 52 64 0.0 0.0 0.00 0.00 0.00 93 1005.1
20260503100107 54 65 0.0 0.0 0.00 0.00 0.00 82 1006.5
20260503081557 61 65 0.0 0.0 0.00 0.00 0.00 76 1006.0
20260503071545 66 65 0.0 0.0 0.00 0.00 0.00 72 1005.6
20260503054529 70 53 0.0 0.0 0.00 0.00 0.00 68 1005.6
20260503053008 70 46 0.0 0.0 0.00 0.00 0.00 66 1005.8
20260503051501 70 46 0.0 0.0 0.00 0.00 0.00 65 1005.9
20260503050042 71 57 0.0 0.0 0.00 0.00 0.00 62 1006.1
20260503044543 72 35 0.0 0.9 0.00 0.00 0.00 62 1006.0
20260503043023 72 34 0.0 0.0 0.00 0.00 0.00 61 1006.1
20260503041518 72 17 0.0 0.0 0.00 0.00 0.00 64 1006.1
20260503040057 71 360 0.0 0.0 0.00 0.00 0.00 64 1006.2
20260503034610 70 268 0.0 0.0 0.00 0.00 0.00 66 1006.5
20260503033038 69 213 0.0 0.0 0.00 0.00 0.00 67 1006.8
20260503031530 69 286 0.0 0.0 0.00 0.00 0.00 68 1007.1
20260503030010 69 138 0.0 0.9 0.00 0.00 0.00 67 1007.3
20260503024507 69 57 0.0 0.0 0.00 0.00 0.00 68 1007.6
20260503023050 69 55 0.0 0.0 0.00 0.00 0.00 67 1007.8
20260503021544 69 51 0.0 0.0 0.00 0.00 0.00 68 1007.9
20260503020022 68 68 0.0 0.0 0.00 0.00 0.00 70 1008.3
20260503014517 67 67 0.0 0.0 0.00 0.00 0.00 74 1008.7
20260503013101 66 65 0.0 0.0 0.00 0.00 0.00 76 1009.0
20260503011605 65 47 0.0 0.0 0.00 0.00 0.00 76 1009.2
20260503010030 64 93 0.0 0.0 0.00 0.00 0.00 77 1009.4
20260503004526 64 80 0.0 0.0 0.00 0.00 0.00 78 1009.6
20260503003005 63 107 0.0 0.9 0.00 0.00 0.00 79 1009.9
20260503001502 62 65 0.0 0.0 0.00 0.00 0.00 81 1010.1